Norfolk, NE

2:45 PM CDT on March 27, 2017 (GMT -0500)
Stefan Memorial

Weather History for KOFK - March, 2013

Change the Weather History Date:

Tuesday, March 5, 2013

  Actual Average Record
Temperature  
Mean Temperature 26 °F 33 °F  
Max Temperature 32 °F 44 °F 75 °F (1937)
Min Temperature 19 °F 23 °F -13 °F (1960)
Degree Days  
Heating Degree Days 39 32  
Month to date heating degree days 181 164  
Since 1 July heating degree days 5102 5257  
Cooling Degree Days 0 0  
Month to date cooling degree days 0 0  
Year to date cooling degree days 0 0  
Moisture  
Dew Point 15 °F    
Average Humidity 65    
Maximum Humidity 77    
Minimum Humidity 53    
Precipitation  
Precipitation T in 0.04 in 1.00 in (1933)
Month to date precipitation T 0.19  
Year to date precipitation 0.90 1.54  
Snow  
Snow T in 0.20 in - ()
Month to date snowfall T 0.9  
Since 1 July snowfall 14.9 23.7  
Snow Depth 0.00 in    
Sea Level Pressure  
Sea Level Pressure 30.28 in    
Wind  
Wind Speed 22 mph (NW)    
Max Wind Speed 36 mph    
Max Gust Speed 44 mph    
Visibility 9 miles    
Events Snow    
T = Trace of Precipitation, MM = Missing Value Source: NWS Daily Summary

Daily Weather History Graph

Daily Weather History Graph

Search for Another Location

Airport or City:

Trip Planner

Search our weather history database for the weather conditions in past years. The results will help you decide how hot, cold, wet, or windy it might be!

Date:

Astronomy

Mar. 05, 2013 Rise Set
Actual Time 6:57 AM CST 6:25 PM CST
Civil Twilight 6:29 AM CST 6:52 PM CST
Nautical Twilight 5:57 AM CST 7:25 PM CST
Astronomical Twilight 5:25 AM CST 7:57 PM CST
Moon 2:15 AM CST (3/5) 12:01 PM CST (3/5)
Length of Visible Light 12h 22m
Length of Day
11h 27m
Last Quarter, 40% of the Moon is Illuminated
Mar 5
Last Quarter
Mar 11
New
Mar 19
First Quarter
Mar 27
Full
Apr 2
Last Quarter

Hourly Weather History & Observations

Time (CST) Temp. Windchill Dew Point Humidity Pressure Visibility Wind Dir Wind Speed Gust Speed Precip Events Conditions
1:56 AM 24.1 °F 8.7 °F 12.0 °F 60% 30.08 in 10.0 mi WNW 23.0 mph 31.1 mph 0.00 in   Clear
2:56 AM 23.0 °F 6.6 °F 10.9 °F 60% 30.08 in 10.0 mi NW 25.3 mph 35.7 mph N/A   Clear
4:53 AM 24.8 °F 9.0 °F 14.0 °F 64% 30.05 in 10.0 mi WNW 25.3 mph 35.7 mph N/A   Overcast
4:56 AM 24.1 °F 8.0 °F 14.0 °F 65% 30.10 in 10.0 mi WNW 25.3 mph 35.7 mph N/A   Overcast
5:56 AM 24.1 °F 7.4 °F 15.1 °F 69% 30.12 in 9.0 mi WNW 27.6 mph 35.7 mph 0.00 in   Overcast
6:56 AM 24.1 °F 8.3 °F 15.1 °F 69% 30.15 in 10.0 mi NW 24.2 mph 35.7 mph N/A   Overcast
7:56 AM 24.1 °F 8.3 °F 15.1 °F 69% 30.17 in 5.0 mi WNW 24.2 mph 34.5 mph 0.00 in Snow Light Snow
8:56 AM 24.1 °F 7.1 °F 16.0 °F 71% 30.19 in 6.0 mi NW 28.8 mph 40.3 mph 0.00 in Snow Light Snow
9:56 AM 24.1 °F 7.4 °F 16.0 °F 71% 30.23 in 6.0 mi NW 27.6 mph 36.8 mph 0.00 in Snow Light Snow
10:56 AM 25.0 °F 7.3 °F 17.1 °F 72% 30.26 in 4.0 mi NW 33.4 mph 43.7 mph 0.00 in Snow Light Snow
11:56 AM 27.0 °F 10.8 °F 16.0 °F 63% 30.28 in 10.0 mi NW 29.9 mph 39.1 mph 0.00 in   Overcast
12:56 PM 28.0 °F 12.5 °F 16.0 °F 61% 30.29 in 9.0 mi NNW 28.8 mph 40.3 mph 0.00 in Snow Light Snow
1:56 PM 28.9 °F 14.8 °F 16.0 °F 58% 30.30 in 10.0 mi NW 24.2 mph 39.1 mph 0.00 in   Overcast
2:56 PM 30.0 °F 15.7 °F 16.0 °F 56% 30.31 in 10.0 mi NNW 26.5 mph 33.4 mph N/A   Overcast
3:03 PM 32.0 °F 18.9 °F 15.8 °F 51% 30.25 in 10.0 mi NW 24.2 mph 36.8 mph N/A   Overcast
3:26 PM 32.0 °F 18.4 °F 15.8 °F 51% 30.25 in 10.0 mi NNW 26.5 mph 33.4 mph N/A   Mostly Cloudy
3:56 PM 30.0 °F 15.4 °F 15.1 °F 54% 30.32 in 10.0 mi NNW 27.6 mph 36.8 mph N/A   Partly Cloudy
4:56 PM 30.0 °F 16.6 °F 16.0 °F 56% 30.34 in 10.0 mi NW 23.0 mph 28.8 mph N/A   Scattered Clouds
5:56 PM 27.0 °F 14.7 °F 15.1 °F 61% 30.37 in 10.0 mi NNW 16.1 mph 25.3 mph N/A   Scattered Clouds
6:14 PM 26.6 °F 13.4 °F 15.8 °F 64% 30.31 in 10.0 mi NNW 18.4 mph 25.3 mph N/A   Mostly Cloudy
6:46 PM 24.8 °F 11.9 °F 15.8 °F 69% 30.31 in 10.0 mi NNW 16.1 mph 25.3 mph N/A   Scattered Clouds
6:56 PM 25.0 °F 11.7 °F 15.1 °F 66% 30.39 in 10.0 mi NNW 17.3 mph - N/A   Partly Cloudy
7:56 PM 24.1 °F 11.0 °F 15.1 °F 69% 30.41 in 10.0 mi NW 16.1 mph - N/A   Clear
8:56 PM 23.0 °F 11.1 °F 14.0 °F 68% 30.41 in 10.0 mi NNW 12.7 mph - N/A   Clear
9:56 PM 19.9 °F 10.1 °F 14.0 °F 78% 30.43 in 10.0 mi NNW 8.1 mph - N/A   Clear
10:42 PM 21.2 °F 12.6 °F 15.8 °F 80% 30.38 in 10.0 mi NW 6.9 mph - N/A   Mostly Cloudy
10:56 PM 21.0 °F 9.3 °F 15.1 °F 78% 30.45 in 10.0 mi NNW 11.5 mph - N/A   Overcast
11:56 PM 19.9 °F 8.6 °F 14.0 °F 78% 30.45 in 10.0 mi NNW 10.4 mph - N/A   Mostly Cloudy